CZ-6A DEB, 54487

Orbit data source: Space-Track

CZ-6A DEB, 54487 is space debris in SSO originally from a launch on Fri, 11 Nov 2022 UTC launched from the Taiyaun Space Center, China (TSC). Debris objects in space refer to the collection of defunct objects orbiting the Earth. Examples of debris include non-operational satellites, rocket bodies, and fragments generated from explosions, collisions, or faulty payload assembly.

Loading next visibility...
Identifier
54487, 2022-151HP
Orbit
SSO
Country
Flag of CNCN / PRC
Related business
Manufacturer
SAST
Mission
Spacecraft
Bus & Motor
Unknown
Mass
Unknown
Launch date (UTC)
2022-11-11 (3 years ago)
Launch vehicle
Unknown
Launch site
Taiyaun Space Center, China (TSC)
Object type
Payload
Rocket body
Debris
Shape & HBR
Unknown shape, 0.1 m
Radar Cross Section
Small (<0.1 m²)

Expand to show TLE details & history
Last TLE update: 15 hours ago

TLE from 15 hours ago
0 CZ-6A DEB
1 54487U 22151HP  25351.44591251  .00022561  00000-0  28700-2 0  9991
2 54487  98.6603  50.8586 0054547 112.1633 248.5379 14.80540852161964
Epoch: 2025-12-17T10:42Z
TLE epoch observation values (Epoch: 2025-12-17T10:42:06.840Z)
Latitude
0.00004°
Longitude
164.01443°
Altitude
644.781 km
Speed
7.528 km/s
True Right ascension
03h 23m 26s
True Declination
0° 00' 00"
Sunlit
Object was in full shadow at epoch
Visualization orbit readout
Latitude
Unknown
Longitude
Unknown
Altitude
Unknown
Speed
Unknown
Apparent Right ascension
Unknown
Apparent Declination
Unknown
Sunlit
N/A
Visualization observer readout
Local Sidereal Time
00:48:51
Azimuth
Unknown
Elevation
Unknown
Doppler factor
Unknown
Orbital elements
Apogee altitude
662.891 km
Perigee altitude
586.495 km
Semi-major axis
7,002.83 km
Eccentricity
0.00545
Inclination
98.6603°
RAAN
50.8586°
Arg. of periapsis
112.1633°
True anomaly
247.95764°
Mean anomaly
248.5379°
Eccentric anomaly
248.24762°
Mean motion
3.70367 °/min
Orbital period
97.2 mins
BSTAR
0.00287
Loading maneuver chart data...
Computing Atmospheric mass density...
Loading historical data...
Loading historical data...
Loading historical data...
Loading historical data...
Loading historical data...
Loading historical data...
Loading historical data...

Documentation

Showing up to 5 results
|